Regional Weather Roundup
Issued by NWS Green Bay, WI

Home | Current Version | Previous Version | Graphics & Text | Print | Product List | Glossary Off
Versions: 1 2 3 4 5 6 7 8 9 10 11 12 13 14 15 16 17 18 19 20 21 22 23 24 25 26 27 28 29 30 31 32 33 34 35 36 37 38 39 40 41 42 43 44 45 46 47 48 49 50

000
ASUS43 KGRB 210800
RWRGRB

NORTH-CENTRAL AND NORTHEAST WISCONSIN REGIONAL WEATHER ROUNDUP
NATIONAL WEATHER SERVICE GREEN BAY WI
200 AM CST SAT JAN 21 2017

WIZ005-009-010>012-018-019-210900-
NORTH CENTRAL WISCONSIN

CITY           SKY/WX    TMP DP  RH WIND       PRES   REMARKS
IRONWOOD       CLOUDY    35  33  92 SE5       29.59S
MANITOWISH WTR NOT AVBL
ARBOR VITAE    NOT AVBL
EAGLE RIVER    NOT AVBL
LAND O LAKES   NOT AVBL
RHINELANDER    CLOUDY    33  33 100 E7        29.60S FOG
PHILLIPS       CLOUDY    32  32 100 SE8       29.57S FOG
ANTIGO         NOT AVBL
TOMAHAWK       NOT AVBL
MERRILL        CLOUDY    33  33 100 E5          N/A  FOG
$$

WIZ013-073-210900-
NORTHEAST WISCONSIN

CITY           SKY/WX    TMP DP  RH WIND       PRES   REMARKS
IRON MOUNTAIN  FOG       32  30  92 CALM      29.63S VSB 3/4
MARINETTE      NOT AVBL
$$

WIZ017-030-035>037-045-210900-
CENTRAL WISCONSIN

CITY           SKY/WX    TMP DP  RH WIND       PRES   REMARKS
MEDFORD        NOT AVBL
WAUSAU         CLOUDY    33  33 100 E8        29.58F FOG
MOSINEE        NOT AVBL
MARSHFIELD     FOG       33  33 100 E8        29.55F VSB 1/4
WISC RAPIDS    LGT RAIN  34  34 100 E9        29.58F FOG
STEVENS POINT  NOT AVBL
WAUPACA        NOT AVBL
SHAWANO        NOT AVBL
CLINTONVILLE   FOG       32  32 100 E6        29.63S VSB 1/2
WAUTOMA        FOG       34  34 100 E6        29.60S VSB 3/4
$$

WIZ038-039-048-051-210900-
FOX VALLEY

CITY           SKY/WX    TMP DP  RH WIND       PRES   REMARKS
NWS GREEN BAY  MIX PCPN  35  35 100 NE7       29.64S VSB 1/4
APPLETON       NOT AVBL
OSHKOSH        FOG       34  33  96 E8        29.60F VSB 1/4
FOND DU LAC    FOG       35  33  92 CALM      29.60F VSB 1/2
$$

WIZ022-050-052-210900-
EAST CENTRAL WISCONSIN

CITY           SKY/WX    TMP DP  RH WIND       PRES   REMARKS
EPHRAIM        NOT AVBL
WASHINGTON ISL NOT AVBL
STURGEON BAY   LGT RAIN  34  34 100 E3        29.66F VSB 1
MANITOWOC      NOT AVBL
SHEBOYGAN      FOG       36  35  96 E3        29.63S VSB 1/4
$$

LMZ563-521-522-541>543-210900-
LAKESHORE

STATION/POSITION TIME  TEMP    WIND        PRES    VSBY  WAVE
                       AIR SEA DIR/SP/G                  HT/PER
                 (UTC) (F)     (DEG/KT/KT) (MB)    (MI)  (FT/S)
SHEBOYGAN LKSHOR 0700   37     100/  8/  9 1004.0F
KEWAUNEE LKSHORE 0730   35      90/  3/  5 1004.1S
NORTHPORT PIER   0740   32        CALM     1004.7F
SISTER BAY LKSHO 0720   34     130/  1/  3   N/A
$$




USA.gov is the U.S. government's official web portal to all federal, state and local government web resources and services.